RYR19N LMML-LGSK

Flight info

Callsign RYR19N
Flight time 1h 22m
Altitude 36000
Route LORED DCT BELIX/N0455F370 DCT ARA UJ52 IXONI DCT SIGFO
Aircraft B738/M-SDE2E3FGHIRWXY/LB1

Departure

Time 2026-04-29 20:12
Airport Malta International Airport (LMML)

Arrival

Time 2026-04-29 21:34
Airport Skiathos Island National Airport (LGSK)
Time Latitude Longitude Altitude Speed Heading
2026-04-29 19:56 35.85411 14.48515 262 ft 0 kts 360°
2026-04-29 20:08 35.85419 14.48505 262 ft 2 kts 266°
2026-04-29 20:08 35.85416 14.48465 262 ft 8 kts 274°
2026-04-29 20:09 35.85437 14.48406 262 ft 5 kts 308°
2026-04-29 20:09 35.85462 14.48376 262 ft 4 kts 319°
2026-04-29 20:09 35.85483 14.48353 262 ft 3 kts 320°
2026-04-29 20:09 35.85506 14.48328 262 ft 6 kts 315°
2026-04-29 20:10 35.85536 14.48292 262 ft 5 kts 316°
2026-04-29 20:10 35.85560 14.48263 262 ft 4 kts 315°
2026-04-29 20:10 35.85577 14.48242 262 ft 2 kts 315°
2026-04-29 20:10 35.85608 14.48222 262 ft 10 kts 338°
2026-04-29 20:11 35.85663 14.48133 262 ft 17 kts 271°
2026-04-29 20:11 35.85662 14.47975 262 ft 16 kts 269°
2026-04-29 20:11 35.85594 14.47946 264 ft 11 kts 136°
2026-04-29 20:11 35.85555 14.47993 264 ft 32 kts 135°
2026-04-29 20:12 35.85197 14.48438 262 ft 112 kts 134°
2026-04-29 20:12 35.84483 14.49313 331 ft 168 kts 133°
2026-04-29 20:12 35.83646 14.50317 1237 ft 168 kts 134°
2026-04-29 20:12 35.82849 14.51241 2146 ft 164 kts 141°
2026-04-29 20:13 35.81418 14.51605 2723 ft 190 kts 191°
2026-04-29 20:13 35.80593 14.51141 3076 ft 202 kts 207°
2026-04-29 20:13 35.79104 14.50203 3630 ft 214 kts 189°
2026-04-29 20:13 35.77520 14.50174 4096 ft 229 kts 166°
2026-04-29 20:14 35.76038 14.50977 4673 ft 242 kts 144°
2026-04-29 20:14 35.74769 14.52462 5310 ft 256 kts 128°
2026-04-29 20:14 35.73872 14.54434 5922 ft 272 kts 108°
2026-04-29 20:14 35.73727 14.56774 6643 ft 283 kts 79°
2026-04-29 20:15 35.74466 14.58983 7454 ft 287 kts 55°
2026-04-29 20:15 35.75841 14.60759 8264 ft 290 kts 33°
2026-04-29 20:15 35.77690 14.61703 9066 ft 290 kts
2026-04-29 20:15 35.79663 14.61938 9928 ft 289 kts
2026-04-29 20:16 35.81688 14.62006 10594 ft 296 kts 359°
2026-04-29 20:16 35.83796 14.62081 11050 ft 312 kts 360°
2026-04-29 20:16 35.86030 14.62210 11508 ft 327 kts
2026-04-29 20:16 35.88326 14.62382 11964 ft 341 kts
2026-04-29 20:17 35.90759 14.62585 12380 ft 356 kts
2026-04-29 20:17 35.93251 14.62799 12784 ft 370 kts
2026-04-29 20:17 35.95872 14.63023 13203 ft 383 kts
2026-04-29 20:17 35.98553 14.63253 13878 ft 389 kts
2026-04-29 20:18 36.01283 14.63486 14563 ft 394 kts
2026-04-29 20:18 36.04018 14.63719 15264 ft 397 kts
2026-04-29 20:18 36.06805 14.63954 15952 ft 401 kts
2026-04-29 20:18 36.09574 14.64303 16619 ft 406 kts
2026-04-29 20:19 36.12345 14.65220 17282 ft 415 kts 19°
2026-04-29 20:19 36.14876 14.66976 17880 ft 425 kts 33°
2026-04-29 20:19 36.17056 14.69501 18442 ft 436 kts 47°
2026-04-29 20:19 36.18832 14.72603 19024 ft 444 kts 57°
2026-04-29 20:20 36.20277 14.75938 19575 ft 450 kts 62°
2026-04-29 20:20 36.21611 14.79486 20108 ft 456 kts 64°
2026-04-29 20:20 36.22883 14.83118 20684 ft 460 kts 65°
2026-04-29 20:20 36.24120 14.86748 21222 ft 464 kts 65°
2026-04-29 20:21 36.25368 14.90431 21762 ft 467 kts 65°
2026-04-29 20:21 36.26634 14.94158 22301 ft 471 kts 65°
2026-04-29 20:21 36.27919 14.97919 22757 ft 476 kts 65°
2026-04-29 20:21 36.29212 15.01680 23220 ft 480 kts 65°
2026-04-29 20:22 36.30532 15.05498 23661 ft 485 kts 65°
2026-04-29 20:22 36.31874 15.09366 24124 ft 490 kts 65°
2026-04-29 20:22 36.33218 15.13232 24613 ft 493 kts 65°
2026-04-29 20:22 36.34581 15.17142 25058 ft 497 kts 64°
2026-04-29 20:23 36.35948 15.21066 25467 ft 502 kts 64°
2026-04-29 20:23 36.37351 15.25090 25887 ft 506 kts 64°
2026-04-29 20:23 36.38755 15.29119 26305 ft 510 kts 64°
2026-04-29 20:23 36.40168 15.33179 26730 ft 513 kts 64°
2026-04-29 20:24 36.41579 15.37242 27237 ft 514 kts 64°
2026-04-29 20:24 36.42978 15.41277 27788 ft 514 kts 64°
2026-04-29 20:24 36.44393 15.45364 28340 ft 513 kts 64°
2026-04-29 20:24 36.45781 15.49376 28874 ft 512 kts 64°
2026-04-29 20:25 36.47188 15.53451 29393 ft 512 kts 63°
2026-04-29 20:25 36.48572 15.57544 29864 ft 513 kts 65°
2026-04-29 20:25 36.49780 15.61718 30360 ft 514 kts 69°
2026-04-29 20:25 36.50750 15.65947 30838 ft 515 kts 74°
2026-04-29 20:26 36.51551 15.70320 31259 ft 516 kts 76°
2026-04-29 20:26 36.52231 15.74636 31675 ft 516 kts 78°
2026-04-29 20:26 36.52870 15.79026 32096 ft 516 kts 78°
2026-04-29 20:26 36.53486 15.83414 32498 ft 516 kts 78°
2026-04-29 20:27 36.54100 15.87810 32903 ft 515 kts 78°
2026-04-29 20:27 36.54514 15.90760 33148 ft 516 kts 78°
2026-04-29 20:27 36.55341 15.96568 33661 ft 515 kts 78°
2026-04-29 20:27 36.55978 16.00980 34037 ft 515 kts 78°
2026-04-29 20:28 36.56614 16.05337 34392 ft 515 kts 78°
2026-04-29 20:28 36.57259 16.09731 34728 ft 515 kts 78°
2026-04-29 20:28 36.57908 16.14132 35107 ft 513 kts 77°
2026-04-29 20:28 36.58550 16.18473 35483 ft 512 kts 77°
2026-04-29 20:29 36.59195 16.22837 35811 ft 512 kts 78°
2026-04-29 20:29 36.59836 16.27186 36048 ft 512 kts 77°
2026-04-29 20:29 36.61113 16.35871 36051 ft 512 kts 77°
2026-04-29 20:30 36.62386 16.44577 36056 ft 510 kts 77°
2026-04-29 20:30 36.63639 16.53205 36054 ft 510 kts 77°
2026-04-29 20:31 36.64891 16.61880 36058 ft 511 kts 77°
2026-04-29 20:31 36.66138 16.70568 36056 ft 510 kts 78°
2026-04-29 20:32 36.67377 16.79245 36060 ft 512 kts 78°
2026-04-29 20:32 36.68610 16.87913 36058 ft 511 kts 78°
2026-04-29 20:33 36.69844 16.96649 36064 ft 511 kts 78°
2026-04-29 20:33 36.71061 17.05306 36065 ft 511 kts 78°
2026-04-29 20:34 36.72283 17.14038 36064 ft 511 kts 78°
2026-04-29 20:34 36.73487 17.22693 36069 ft 511 kts 77°
2026-04-29 20:35 36.74700 17.31469 36065 ft 512 kts 77°
2026-04-29 20:35 36.75892 17.40158 36068 ft 511 kts 77°
2026-04-29 20:36 36.77081 17.48863 36068 ft 511 kts 77°
2026-04-29 20:36 36.78271 17.57608 36065 ft 511 kts 77°
2026-04-29 20:37 36.79449 17.66326 36068 ft 511 kts 78°
2026-04-29 20:37 36.80619 17.75031 36070 ft 512 kts 78°
2026-04-29 20:38 36.81789 17.83782 36072 ft 513 kts 78°
2026-04-29 20:38 36.82951 17.92534 36071 ft 513 kts 78°
2026-04-29 20:39 36.84108 18.01302 36068 ft 512 kts 77°
2026-04-29 20:39 36.85259 18.10070 36067 ft 512 kts 77°
2026-04-29 20:40 36.86404 18.18844 36070 ft 512 kts 77°
2026-04-29 20:40 36.87546 18.27640 36066 ft 514 kts 77°
2026-04-29 20:41 36.88686 18.36476 36069 ft 514 kts 77°
2026-04-29 20:41 36.89814 18.45278 36065 ft 513 kts 77°
2026-04-29 20:42 36.90938 18.54108 36069 ft 512 kts 77°
2026-04-29 20:42 36.92050 18.62892 36070 ft 513 kts 77°
2026-04-29 20:43 36.93152 18.71643 36068 ft 512 kts 78°
2026-04-29 20:43 36.94248 18.80407 36067 ft 512 kts 78°
2026-04-29 20:44 36.95337 18.89163 36069 ft 513 kts 78°
2026-04-29 20:44 36.96793 18.97815 36064 ft 507 kts 68°
2026-04-29 20:45 36.99587 19.05762 36069 ft 498 kts 55°
2026-04-29 20:45 37.03111 19.13211 36066 ft 493 kts 51°
2026-04-29 20:46 37.06810 19.20362 36072 ft 492 kts 50°
2026-04-29 20:46 37.10558 19.27544 36075 ft 492 kts 51°
2026-04-29 20:47 37.14251 19.34733 36076 ft 491 kts 51°
2026-04-29 20:47 37.17915 19.41961 36068 ft 489 kts 51°
2026-04-29 20:48 37.21531 19.49147 36070 ft 490 kts 51°
2026-04-29 20:48 37.25148 19.56366 36072 ft 489 kts 51°
2026-04-29 20:49 37.28758 19.63593 36062 ft 488 kts 51°
2026-04-29 20:49 37.32332 19.70759 36068 ft 488 kts 52°
2026-04-29 20:50 37.35928 19.77983 36076 ft 487 kts 52°
2026-04-29 20:50 37.39499 19.85172 36074 ft 488 kts 52°
2026-04-29 20:51 37.43074 19.92389 36077 ft 486 kts 52°
2026-04-29 20:51 37.46630 19.99581 36071 ft 485 kts 52°
2026-04-29 20:52 37.50208 20.06829 36075 ft 486 kts 52°
2026-04-29 20:52 37.53760 20.14041 36070 ft 487 kts 52°
2026-04-29 20:53 37.57305 20.21257 36066 ft 486 kts 52°
2026-04-29 20:53 37.60860 20.28511 36079 ft 486 kts 52°
2026-04-29 20:54 37.66190 20.39416 36070 ft 485 kts 52°
2026-04-29 20:55 37.69719 20.46655 35836 ft 481 kts 52°
2026-04-29 20:55 37.71463 20.50244 36050 ft 481 kts 52°
2026-04-29 20:55 37.73246 20.53907 36071 ft 486 kts 52°
2026-04-29 20:56 37.76780 20.61178 36074 ft 487 kts 52°
2026-04-29 20:56 37.80294 20.68434 36076 ft 485 kts 53°
2026-04-29 20:57 37.83832 20.75756 36079 ft 486 kts 53°
2026-04-29 20:57 37.87332 20.83016 36077 ft 485 kts 53°
2026-04-29 20:58 37.90851 20.90333 36074 ft 485 kts 53°
2026-04-29 20:58 37.94359 20.97643 35995 ft 487 kts 53°
2026-04-29 20:58 37.96117 21.01314 36437 ft 484 kts 53°
2026-04-29 20:59 37.97871 21.04975 36182 ft 488 kts 53°
2026-04-29 20:59 37.99637 21.08673 36079 ft 481 kts 53°
2026-04-29 20:59 38.01366 21.12299 35898 ft 478 kts 53°
2026-04-29 20:59 38.03088 21.15914 36067 ft 479 kts 53°
2026-04-29 21:00 38.04815 21.19536 36074 ft 483 kts 53°
2026-04-29 21:00 38.08302 21.26850 36078 ft 486 kts 53°
2026-04-29 21:01 38.11764 21.34148 36080 ft 481 kts 54°
2026-04-29 21:01 38.15062 21.41645 36076 ft 487 kts 60°
2026-04-29 21:01 38.16381 21.45666 36236 ft 490 kts 66°
2026-04-29 21:02 38.17421 21.49711 36084 ft 485 kts 70°
2026-04-29 21:02 38.18300 21.53814 35936 ft 480 kts 72°
2026-04-29 21:02 38.19104 21.57946 36070 ft 482 kts 73°
2026-04-29 21:03 38.20667 21.66332 36082 ft 492 kts 74°
2026-04-29 21:03 38.22240 21.74776 36089 ft 490 kts 74°
2026-04-29 21:03 38.23040 21.79022 36337 ft 492 kts 73°
2026-04-29 21:04 38.23840 21.83227 36127 ft 489 kts 73°
2026-04-29 21:04 38.25447 21.91625 36123 ft 486 kts 73°
2026-04-29 21:05 38.27049 21.99940 35987 ft 485 kts 73°
2026-04-29 21:05 38.27858 22.04142 36312 ft 490 kts 73°
2026-04-29 21:05 38.28668 22.08353 36124 ft 487 kts 73°
2026-04-29 21:05 38.29457 22.12471 35977 ft 479 kts 73°
2026-04-29 21:06 38.30252 22.16594 36103 ft 481 kts 73°
2026-04-29 21:06 38.32287 22.24713 36086 ft 484 kts 64°
2026-04-29 21:06 38.33712 22.28611 35818 ft 479 kts 59°
2026-04-29 21:07 38.35271 22.32320 35298 ft 476 kts 57°
2026-04-29 21:07 38.36912 22.35937 34636 ft 478 kts 56°
2026-04-29 21:07 38.38617 22.39573 33858 ft 481 kts 56°
2026-04-29 21:07 38.40342 22.43228 33030 ft 484 kts 56°
2026-04-29 21:08 38.42070 22.46910 32225 ft 486 kts 56°
2026-04-29 21:08 38.43805 22.50648 31378 ft 488 kts 57°
2026-04-29 21:08 38.45529 22.54405 30512 ft 490 kts 57°
2026-04-29 21:08 38.47219 22.58123 29591 ft 492 kts 57°
2026-04-29 21:09 38.48929 22.61912 28629 ft 493 kts 57°
2026-04-29 21:09 38.50616 22.65670 27778 ft 492 kts 58°
2026-04-29 21:09 38.52298 22.69434 27169 ft 485 kts 58°
2026-04-29 21:09 38.53968 22.73185 26509 ft 480 kts 58°
2026-04-29 21:10 38.55592 22.76837 25835 ft 476 kts 58°
2026-04-29 21:10 38.57222 22.80505 25149 ft 472 kts 58°
2026-04-29 21:10 38.58815 22.84097 24468 ft 468 kts 58°
2026-04-29 21:10 38.60424 22.87724 23781 ft 463 kts 58°
2026-04-29 21:11 38.61988 22.91254 23104 ft 460 kts 58°
2026-04-29 21:11 38.63560 22.94808 22433 ft 456 kts 58°
2026-04-29 21:11 38.65110 22.98315 21756 ft 452 kts 58°
2026-04-29 21:11 38.66632 23.01759 21072 ft 449 kts 58°
2026-04-29 21:12 38.68163 23.05230 20349 ft 439 kts 58°
2026-04-29 21:12 38.69627 23.08558 19728 ft 420 kts 58°
2026-04-29 21:12 38.71024 23.11737 19097 ft 404 kts 58°
2026-04-29 21:12 38.72379 23.14825 18553 ft 390 kts 58°
2026-04-29 21:13 38.73713 23.17861 18003 ft 394 kts 58°
2026-04-29 21:13 38.75074 23.20951 17443 ft 403 kts 58°
2026-04-29 21:13 38.76443 23.24065 16750 ft 405 kts 59°
2026-04-29 21:13 38.77827 23.27220 16099 ft 402 kts 59°
2026-04-29 21:14 38.79177 23.30304 15479 ft 399 kts 59°
2026-04-29 21:14 38.80528 23.33397 14852 ft 395 kts 59°
2026-04-29 21:14 38.81873 23.36476 14218 ft 392 kts 59°
2026-04-29 21:14 38.83195 23.39506 13602 ft 389 kts 59°
2026-04-29 21:15 38.84480 23.42456 12970 ft 375 kts 59°
2026-04-29 21:15 38.85743 23.45359 12404 ft 370 kts 59°
2026-04-29 21:15 38.87001 23.48249 11782 ft 369 kts 59°
2026-04-29 21:15 38.88233 23.51082 11207 ft 366 kts 59°
2026-04-29 21:16 38.89457 23.53898 10846 ft 356 kts 59°
2026-04-29 21:16 38.90645 23.56637 10678 ft 342 kts 59°
2026-04-29 21:16 38.91781 23.59260 10548 ft 328 kts 59°
2026-04-29 21:16 38.92947 23.61709 10408 ft 314 kts 53°
2026-04-29 21:17 38.94407 23.63682 10266 ft 299 kts 32°
2026-04-29 21:17 38.96281 23.64658 10040 ft 287 kts
2026-04-29 21:17 38.98267 23.64628 9659 ft 283 kts 350°
2026-04-29 21:17 39.00200 23.64268 9475 ft 273 kts 350°
2026-04-29 21:18 39.02032 23.63962 9201 ft 261 kts 352°
2026-04-29 21:18 39.03801 23.63699 8986 ft 248 kts 352°
2026-04-29 21:18 39.05491 23.63455 8686 ft 242 kts 352°
2026-04-29 21:18 39.07127 23.63217 8552 ft 231 kts 352°
2026-04-29 21:19 39.08696 23.62987 8352 ft 222 kts 352°
2026-04-29 21:19 39.10220 23.62761 8023 ft 217 kts 352°
2026-04-29 21:19 39.11676 23.62545 7785 ft 207 kts 352°
2026-04-29 21:19 39.13117 23.62330 7370 ft 208 kts 352°
2026-04-29 21:20 39.14566 23.62114 6867 ft 213 kts 352°
2026-04-29 21:20 39.16033 23.62211 6563 ft 208 kts
2026-04-29 21:20 39.17429 23.62188 6531 ft 199 kts 335°
2026-04-29 21:20 39.18437 23.61032 6537 ft 200 kts 291°
2026-04-29 21:21 39.18506 23.59335 6534 ft 191 kts 245°
2026-04-29 21:21 39.17607 23.58131 6541 ft 191 kts 205°
2026-04-29 21:21 39.16324 23.57647 6544 ft 193 kts 188°
2026-04-29 21:21 39.14980 23.57655 6539 ft 194 kts 170°
2026-04-29 21:22 39.13712 23.58261 6515 ft 197 kts 148°
2026-04-29 21:22 39.12709 23.59473 6257 ft 199 kts 123°
2026-04-29 21:22 39.12153 23.61048 5936 ft 196 kts 102°
2026-04-29 21:22 39.12095 23.62769 5617 ft 192 kts 84°
2026-04-29 21:23 39.12232 23.64492 5292 ft 192 kts 84°
2026-04-29 21:23 39.12340 23.66182 4971 ft 191 kts 86°
2026-04-29 21:23 39.12428 23.67893 4641 ft 190 kts 87°
2026-04-29 21:23 39.12562 23.69561 4318 ft 189 kts 77°
2026-04-29 21:24 39.13173 23.71030 4013 ft 188 kts 41°
2026-04-29 21:24 39.14299 23.71844 3981 ft 186 kts 15°
2026-04-29 21:24 39.15610 23.72079 3981 ft 188 kts 359°
2026-04-29 21:24 39.16874 23.71766 3980 ft 187 kts 328°
2026-04-29 21:25 39.17814 23.70628 3988 ft 185 kts 300°
2026-04-29 21:25 39.18343 23.69149 3985 ft 183 kts 284°
2026-04-29 21:25 39.18449 23.67522 3987 ft 183 kts 264°
2026-04-29 21:25 39.18309 23.65902 3984 ft 183 kts 263°
2026-04-29 21:26 39.18198 23.64267 3985 ft 182 kts 265°
2026-04-29 21:26 39.18086 23.62661 3973 ft 182 kts 256°
2026-04-29 21:26 39.17458 23.61247 3815 ft 183 kts 220°
2026-04-29 21:26 39.16363 23.60437 3653 ft 181 kts 204°
2026-04-29 21:27 39.15598 23.59997 3526 ft 181 kts 205°
2026-04-29 21:27 39.14114 23.59033 3295 ft 180 kts 208°
2026-04-29 21:27 39.13001 23.58284 3120 ft 179 kts 207°
2026-04-29 21:27 39.11899 23.57552 2946 ft 178 kts 207°
2026-04-29 21:28 39.10786 23.56822 2769 ft 176 kts 206°
2026-04-29 21:28 39.09733 23.56135 2601 ft 168 kts 206°
2026-04-29 21:28 39.08684 23.55452 2428 ft 168 kts 206°
2026-04-29 21:28 39.07632 23.54766 2251 ft 169 kts 206°
2026-04-29 21:29 39.06582 23.54080 2076 ft 170 kts 205°
2026-04-29 21:29 39.05530 23.53394 1958 ft 168 kts 205°
2026-04-29 21:29 39.04491 23.52716 1900 ft 169 kts 205°
2026-04-29 21:29 39.03437 23.52029 1836 ft 169 kts 205°
2026-04-29 21:30 39.02427 23.51249 1765 ft 171 kts 225°
2026-04-29 21:30 39.01924 23.49872 1707 ft 174 kts 266°
2026-04-29 21:30 39.02086 23.48352 1613 ft 174 kts 291°
2026-04-29 21:30 39.02726 23.47083 1574 ft 168 kts 328°
2026-04-29 21:31 39.03823 23.46731 1597 ft 166 kts
2026-04-29 21:31 39.04956 23.46896 1584 ft 163 kts 10°
2026-04-29 21:31 39.06097 23.47109 1585 ft 164 kts 12°
2026-04-29 21:31 39.07219 23.47360 1586 ft 163 kts 13°
2026-04-29 21:32 39.08332 23.47641 1587 ft 163 kts 14°
2026-04-29 21:32 39.09443 23.47936 1559 ft 161 kts 14°
2026-04-29 21:32 39.10508 23.48226 1311 ft 153 kts 15°
2026-04-29 21:32 39.11539 23.48512 1119 ft 150 kts 15°
2026-04-29 21:33 39.12564 23.48787 918 ft 150 kts 11°
2026-04-29 21:33 39.13603 23.48898 712 ft 149 kts
2026-04-29 21:33 39.14627 23.49022 481 ft 147 kts 11°
2026-04-29 21:33 39.15627 23.49384 365 ft 146 kts 23°
2026-04-29 21:34 39.16566 23.49854 171 ft 143 kts 20°
2026-04-29 21:34 39.17492 23.50267 39 ft 127 kts 21°
2026-04-29 21:34 39.18089 23.50532 70 ft 58 kts 19°
2026-04-29 21:34 39.18338 23.50641 68 ft 21 kts 19°
2026-04-29 21:35 39.18399 23.50660 67 ft 4 kts 138°
2026-04-29 21:35 39.18341 23.50643 68 ft 17 kts 200°
2026-04-29 21:35 39.18214 23.50585 70 ft 21 kts 198°
2026-04-29 21:35 39.18044 23.50513 69 ft 25 kts 199°
2026-04-29 21:36 39.17928 23.50401 66 ft 18 kts 249°
2026-04-29 21:36 39.17896 23.50313 64 ft 7 kts 274°
2026-04-29 21:36 39.17907 23.50262 65 ft 2 kts 290°
2026-04-29 21:36 39.17910 23.50252 65 ft 0 kts 290°
2026-04-29 21:37 39.17914 23.50240 65 ft 0 kts 290°